www.pogodaiklimat.ru

Погода и климат >> Архив погоды >> Корея >> Кочхан


ПОГОДА в Кочхане

  • Прогноз погоды в Кочхане
  • Монитор погоды в Кочхане

АРХИВ ПОГОДЫ в Кочхане

Время (UTC), дата Ветер
(напр.,м/с)
 
Видим.   Явления Облачность Т
(С)
Тd
(С)
f
(%)
Тe
(С)
Тes
(С)
Комфортность P
(гПа)
Po
(гПа)
Тmin
(С)
Tmax
(С)
R
(мм)
R24
(мм)
S
(см)
15 13.09 штиль 0 27 км 3/0
[]
+19.5 +18.6 95 +22 +22 комфорт 1012.0 1005.7
18 13.09 С 2 28 км 5/0 2000 м
[]
+19.2 +18.3 95 +22 +22 комфорт 1011.5 1005.2
21 13.09 17 км н/о +19.0 +18.5 97 +21 +21 комфорт 1011.9 1005.6
00 14.09 З 1 35 км 9/0
[]
+22.5 +20.0 86 +29 +29 очень
душно
1012.6 1006.4 +18.2
03 14.09 СЗ 2 50 км 8/5 600 м
[]
+27.1 +20.1 66 +33 +39 очень
душно
1011.3 1005.2
06 14.09 З 2 50 км 8/8 600 м
[]
+28.3 +19.7 60 +34 +36 очень
душно
1010.0 1003.9
09 14.09 50 км н/о +25.2 +19.5 71 +31 +31 очень
душно
1010.1 1003.9
12 14.09 Ю 1 35 км ?/? +22.2 +20.4 90 +29 +29 очень
душно
1011.7 1005.5 +28.7
15 14.09 штиль 0 24 км 8/8 1000 м
[]
+21.5 +20.3 93 +27 +27 душно 1011.0 1004.8
18 14.09 ЮЗ 1 11 км 8/8 200 м
[]
+20.3 +19.6 96 +25 +25 комфорт 1009.8 1003.5
21 14.09 С 1 7000 м 10// 300 м
[]
+21.7 +20.1 91 +27 +27 душно 1010.3 1004.1
00 15.09 С 2 15 км 4/4 600 м
[]
+24.0 +20.5 81 +30 +33 очень
душно
1010.6 1004.5 +20.3
03 15.09 С 2 45 км 6/1 600 м
[]
+26.6 +21.1 72 +34 +43 очень
душно
1009.5 1003.4
06 15.09 С 2 50 км 5/5 1000 м
[]
+28.3 +20.0 61 +35 +39 очень
душно
1007.7 1001.6
09 15.09 22 км н/о +24.5 +21.4 83 +31 +31 очень
душно
1008.2 1002.1
12 15.09 Ю 2 7000 м 5/5 300 м
[]
+22.3 +20.7 91 +29 +29 очень
душно
1010.1 1003.9 +30.1
15 15.09 4500 м н/о +20.8 +19.9 95 +25 +25 комфорт 1009.9 1003.6
18 15.09 штиль 0 5000 м 5/0
[]
+20.7 +19.8 95 +25 +25 комфорт 1008.6 1002.4
21 15.09 4400 м н/о +21.1 +20.2 95 +26 +26 душно 1008.9 1002.7
00 16.09 С 1 10 км 8/8 300 м
[]
+23.0 +20.1 84 +30 +31 очень
душно
1010.0 1003.8 +20.2
03 16.09 С 4 35 км 8/0
[]
+26.7 +20.2 68 +33 +39 очень
душно
1009.3 1003.2
06 16.09 С 3 50 км 3/0
[]
+28.2 +19.6 60 +34 +41 очень
душно
1007.9 1001.8
09 16.09 С 5 50 км ясно +26.2 +18.8 64 +31 +31 очень
душно
1008.7 1002.6
12 16.09 Ю 1 29 км 3/0
[]
+21.2 +19.1 88 +26 +26 душно 1010.0 1003.8 +28.9
15 16.09 штиль 0 30 км 3/0
[]
+19.6 +18.2 92 +22 +22 комфорт 1010.8 1004.6
18 16.09 В 1 50 км ясно +18.1 +16.6 91 +19 +19 1011.6 1005.3
21 16.09 штиль 0 45 км 3/0
[]
+16.2 +15.0 93 +16 +16 1012.9 1006.5
00 17.09 С 3 35 км ясно +22.1 +18.4 80 +27 +32 душно 1014.2 1008.0 +15.8 0.0
03 17.09 С 2 50 км ясно +27.5 +15.1 47 +30 +45 жарко 1013.7 1007.6
06 17.09 СЗ 2 50 км ясно +29.3 +13.5 38 +31 +41 жарко 1012.3 1006.2
09 17.09 З 2 50 км ясно +25.5 +12.6 45 +27 +28 жарко 1013.0 1006.8
12 17.09 штиль 0 50 км 6/0
[]
+17.7 +15.3 86 +18 +18 1014.4 1008.1 +29.5
15 17.09 СВ 1 45 км 5/0
[]
+16.8 +15.1 90 +18 +18 1014.1 1007.7
18 17.09 Ю 1 50 км 8/0
[]
+17.1 +15.2 89 +18 +18 1014.0 1007.6
21 17.09 штиль 0 45 км 10//
[]
+17.3 +15.8 91 +17 +17 1014.7 1008.4
00 18.09 С 1 40 км ясно +22.9 +17.1 70 +28 +34 душно 1016.2 1010.0 +16.0
03 18.09 С 3 45 км ясно +26.3 +15.9 53 +30 +42 душно 1016.1 1009.9
06 18.09 С 4 50 км 1/0
[]
+26.4 +16.0 53 +30 +36 душно 1015.1 1008.9
09 18.09 СЗ 2 50 км ясно +21.8 +10.6 49 +24 +24 комфорт 1015.9 1009.6
12 18.09 штиль 0 50 км ясно +15.5 +12.0 80 +15 +15 1017.5 1011.1 +27.6
15 18.09 штиль 0 50 км ясно +13.3 +9.3 77 +13 +13 1017.5 1011.0
18 18.09 С 1 50 км 6/0
[]
+11.7 +8.9 83 +12 +12 1017.1 1010.6
21 18.09 штиль 0 50 км 8/0
[]
+10.5 +8.5 87 +10 +10 1018.7 1012.1
00 19.09 С 1 45 км ясно +18.1 +11.1 64 +19 +25 1018.4 1012.1 +10.3
03 19.09 С 2 45 км ясно +23.8 +13.0 51 +26 +40 жарко 1017.6 1011.4
06 19.09 З 2 50 км ясно +25.8 +13.9 48 +28 +37 жарко 1016.1 1009.9
09 19.09 СЗ 2 50 км 1/0
[]
+22.8 +14.0 58 +26 +27 жарко 1015.7 1009.5
12 19.09 Ю 1 30 км 9/0
[]
+17.1 +14.7 86 +18 +18 1016.2 1009.8 +26.2
15 19.09 штиль 0 21 км ясно +16.6 +14.9 90 +16 +16 1015.8 1009.4
18 19.09 С 1 14 км 8/0
[]
+16.2 +14.2 88 +17 +17 1015.6 1009.2
21 19.09 штиль 0 9000 м 9/4
[]
+15.3 +14.1 93 +15 +15 1015.0 1008.6
00 20.09 С 1 14 км ?/? +18.2 +15.6 85 +20 +23 1015.1 1008.8 +14.8
03 20.09 С 1 16 км 10/9
[]
+21.0 +15.9 73 +26 +26 душно 1015.1 1008.8
06 20.09 С 4 15 км ?/? +22.5 +17.1 72 +27 +27 душно 1014.2 1008.0
09 20.09 В 1 35 км 9//
[]
+21.5 +15.5 69 +25 +25 комфорт 1014.8 1008.5

 

Местоположение метеостанции Кочхан (Корея): широта 35.43 долгота 126.70 высота над уровнем моря 44 м.

В архиве по умолчанию представлена погода в Кочхане за последнюю неделю. Архивные данные за месяц целиком и за предыдущие месяцы, начиная с января 2011 года, Вы можете получить, выбрав интересующий диапазон дат из раскрывающегося списка и нажав кнопку "Ввод!".


*Определитесь, кто Вы:
робот инопланетянин человек

Внимание! Время в таблицах - всемирное. Для получения местного времени необходимо прибавить поправку, которая равна 9 ч.

Смотрите также архив погоды в соседних городах и на ближайших метеорологических станциях:

Погода в Чоныпе (Корея) (20 км)
Погода в Кванджу (Корея) (34 км)
Погода в Намвоне (Корея) (57 км)
Погода в Чонджу (Корея) (59 км)
Погода в Сунчхоне (Корея) (63 км)
Погода в Кунсане (Корея) (64 км)
Погода в Мокпхо (Корея) (74 км)
Погода в Порёне (Корея) (101 км)
Погода в Чинхэгу (Корея) (112 км)
Погода на Радаре Jindo (Корея) (112 км)

Пояснения к столбцам:

Ветер - указаны скорость ветра в м/с - средняя за 10 мин, порывы в срок и между сроками (в фигурных скобках) и направление, откуда дует ветер: С - северный, СВ - северо-восточный, В - восточный, ЮВ - юго-восточный, Ю - южный, ЮЗ - юго-западный, З - западный, СЗ - северо-западный.
Видимость - горизонтальная дальность видимости в метрах или километрах. При видимости от 1 до 10 км при отсутствии осадков обычно наблюдается дымка, при ухудшении видимости до 1 км и менее - туман. В сухую погоду видимость может ухудшаться дымом, пылью или мглою.
Явления - указаны атмосферные явления, наблюдавшиеся в срок или в последний час перед сроком; фигурными скобками обозначены явления, наблюдавшиеся между сроками (за 1-3 часа до срока); квадратными скобками обозначены град или гололедные отложения с указанием их диаметра в мм.
Облачность - указаны через наклонную черту общая и нижняя облачность в баллах и высота нижней границы облаков в метрах; квадратными скобками обозначены формы облаков: Ci - перистые, Cs - перисто-слоистые, Cc - перисто-кучевые, Ac - высококучевые, As - высокослоистые, Sc - слоисто-кучевые, Ns - слоисто-дождевые, Cu - кучевые, Cb - кучево-дождевые. Подробнее классификацию облаков см. в Атласе облаков (PDF).
T - Температура воздуха - температура, измеренная на высоте 2 м над землей.
Td - Температура точки росы - температура, при понижении до которой содержащийся в воздухе водяной пар достигнет насыщения.
f - Относительная влажность воздуха - влажноcть воздуха, измеренная на высоте 2 м над землей.
Te - Эффективная температура - температура, которую ощущает одетый по сезону человек в тени. Характеристика душности погоды. При расчете учитывается влияние влажности воздуха и скорости ветра на теплоощущения человека.
Tes - Эффективная температура на солнце - температура, которую ощущает человек, с поправкой на солнечный нагрев. Характеристика знойности погоды. Зависит от высоты солнца над горизонтом, облачности и скорости ветра. Ночью, в пасмурную погоду, а также при ветре 12 м/с и более поправка равна нулю.
P - Атмосферное давление - приведенное к уровню моря атмосферное давление.
Po - Атмосферное давление - измеренное на уровне метеостанции атмосферное давление.
Tmin - Минимальная температура - минимум температуры воздуха на высоте 2 м над землей.
Tmax - Максимальная температура - максимум температуры воздуха на высоте 2 м над землей.
R - Количество осадков - Количество выпавших осадков за период времени, мм. При наведении курсора мыши на число - период времени, за который выпало указанное количество осадков.
R24 - Количество осадков - Количество выпавших осадков за 24 часа, мм.
S - Снежный покров - Высота снежного покрова, см. При наведении курсора мыши на число - состояние снежного покрова и степень покрытия местности в баллах.